| time (UTC) | temp F | wind direction | speed knots | gust knots | rain 1hr in | rain 24hr in | rain mn in | humidity % | barometer mb |
| 20260507081825 | 50 | 248 | 2.6 | 3.5 | 0.01 | 0.20 | 0.02 | 99 | 1007.4 |
| 20260507081356 | 50 | 225 | 2.6 | 2.6 | 0.01 | 0.20 | 0.02 | 99 | 1007.4 |
| 20260507080905 | 50 | 225 | 2.6 | 2.6 | 0.01 | 0.20 | 0.02 | 99 | 1007.5 |
| 20260507080316 | 50 | 195 | 1.7 | 2.6 | 0.01 | 0.20 | 0.02 | 99 | 1007.5 |
| 20260507075826 | 50 | 219 | 2.6 | 3.5 | 0.01 | 0.20 | 0.02 | 99 | 1007.5 |
| 20260507075317 | 51 | 244 | 2.6 | 3.5 | 0.01 | 0.20 | 0.02 | 99 | 1007.8 |
| 20260507074841 | 51 | 270 | 4.3 | 4.3 | 0.01 | 0.20 | 0.02 | 99 | 1007.8 |
| 20260507074350 | 51 | 191 | 5.2 | 7.0 | 0.01 | 0.20 | 0.02 | 99 | 1007.9 |
| 20260507073820 | 51 | 203 | 3.5 | 3.5 | 0.00 | 0.19 | 0.01 | 99 | 1007.9 |
| 20260507073330 | 52 | 203 | 2.6 | 2.6 | 0.00 | 0.19 | 0.01 | 99 | 1007.9 |
| 20260507072841 | 0 | 203 | 0.0 | 0.9 | 0.00 | 0.19 | 0.01 | 1007.2 | |
| 20260507072350 | 52 | 203 | 0.9 | 1.7 | 0.00 | 0.19 | 0.01 | 99 | 1007.2 |
| 20260507071841 | 52 | 229 | 2.6 | 2.6 | 0.00 | 0.19 | 0.01 | 99 | 1007.0 |
| 20260507071330 | 52 | 189 | 0.9 | 1.7 | 0.00 | 0.19 | 0.01 | 99 | 1007.0 |
| 20260507070330 | 52 | 191 | 1.7 | 1.7 | 0.00 | 0.19 | 0.01 | 99 | 1007.0 |
| 20260507065841 | 52 | 225 | 1.7 | 2.6 | 0.00 | 0.19 | 0.01 | 99 | 1007.0 |
| 20260507065319 | 52 | 203 | 1.7 | 2.6 | 0.00 | 0.19 | 0.01 | 99 | 1006.6 |
| 20260507064822 | 52 | 225 | 2.6 | 2.6 | 0.00 | 0.19 | 0.01 | 99 | 1006.6 |
| 20260507064319 | 52 | 230 | 2.6 | 3.5 | 0.00 | 0.19 | 0.01 | 99 | 1006.9 |
| 20260507063816 | 52 | 203 | 1.7 | 1.7 | 0.00 | 0.19 | 0.01 | 99 | 1006.9 |
| 20260507063319 | 52 | 203 | 3.5 | 3.5 | 0.00 | 0.19 | 0.01 | 99 | 1007.0 |
| 20260507062848 | 52 | 198 | 2.6 | 2.6 | 0.00 | 0.19 | 0.01 | 99 | 1007.0 |
| 20260507062320 | 52 | 165 | 3.5 | 3.5 | 0.00 | 0.19 | 0.01 | 99 | 1007.0 |
| 20260507061828 | 52 | 226 | 4.3 | 5.2 | 0.00 | 0.19 | 0.01 | 99 | 1006.7 |
| 20260507061339 | 52 | 248 | 3.5 | 4.3 | 0.00 | 0.19 | 0.01 | 99 | 1006.7 |
| 20260507060828 | 52 | 248 | 3.5 | 3.5 | 0.00 | 0.19 | 0.01 | 99 | 1006.7 |
| 20260507060319 | 52 | 237 | 3.5 | 4.3 | 0.00 | 0.19 | 0.01 | 99 | 1006.7 |
| 20260507055828 | 53 | 225 | 3.5 | 3.5 | 0.00 | 0.19 | 0.01 | 98 | 1006.7 |
| 20260507055319 | 53 | 242 | 3.5 | 4.3 | 0.00 | 0.19 | 0.01 | 98 | 1007.1 |
| 20260507054828 | 53 | 203 | 4.3 | 4.3 | 0.00 | 0.19 | 0.01 | 99 | 1007.1 |
| 20260507054319 | 53 | 248 | 3.5 | 4.3 | 0.00 | 0.19 | 0.01 | 99 | 1007.4 |
| 20260507053828 | 53 | 203 | 3.5 | 3.5 | 0.00 | 0.19 | 0.01 | 99 | 1007.4 |
| 20260507053319 | 53 | 204 | 3.5 | 4.3 | 0.00 | 0.19 | 0.01 | 99 | 1007.4 |
| 20260507052828 | 53 | 270 | 4.3 | 4.3 | 0.00 | 0.19 | 0.01 | 99 | 1007.1 |
| 20260507052319 | 54 | 203 | 5.2 | 7.8 | 0.00 | 0.19 | 0.01 | 99 | 1007.1 |
| 20260507051848 | 54 | 203 | 3.5 | 5.2 | 0.00 | 0.19 | 0.01 | 99 | 1007.3 |
| 20260507051319 | 54 | 180 | 4.3 | 5.2 | 0.00 | 0.19 | 0.01 | 99 | 1007.3 |
| 20260507050822 | 54 | 203 | 3.5 | 3.5 | 0.00 | 0.19 | 0.01 | 99 | 1007.0 |
| 20260507050319 | 54 | 214 | 5.2 | 5.2 | 0.00 | 0.19 | 0.01 | 99 | 1007.0 |
| 20260507045816 | 55 | 218 | 1.7 | 2.6 | 0.01 | 0.19 | 0.01 | 99 | 1007.0 |
| 20260507045319 | 55 | 203 | 0.9 | 2.6 | 0.03 | 0.19 | 0.01 | 99 | 1007.2 |
| 20260507044828 | 55 | 214 | 3.5 | 3.5 | 0.03 | 0.19 | 0.01 | 99 | 1007.2 |
| 20260507044319 | 55 | 203 | 1.7 | 2.6 | 0.03 | 0.19 | 0.01 | 99 | 1006.9 |
| 20260507043828 | 55 | 203 | 4.3 | 5.2 | 0.03 | 0.19 | 0.01 | 99 | 1006.9 |
| 20260507043319 | 55 | 203 | 5.2 | 6.1 | 0.03 | 0.19 | 0.01 | 99 | |
| 20260507042828 | 55 | 225 | 3.5 | 4.3 | 0.03 | 0.19 | 0.01 | 99 | 1006.9 |
| 20260507042319 | 55 | 270 | 3.5 | 3.5 | 0.03 | 0.19 | 0.01 | 99 | 1006.9 |
| 20260507041829 | 55 | 225 | 2.6 | 2.6 | 0.03 | 0.19 | 0.01 | 99 | 1006.9 |
| 20260507041320 | 55 | 229 | 5.2 | 6.1 | 0.03 | 0.19 | 0.01 | 99 | 1006.9 |
| 20260507040829 | 55 | 180 | 5.2 | 6.1 | 0.03 | 0.19 | 0.01 | 99 | 1007.0 |
| 20260507040321 | 56 | 210 | 7.0 | 10.4 | 0.03 | 0.19 | 0.01 | 99 | 1007.0 |
| 20260507035823 | 57 | 191 | 4.3 | 4.3 | 0.02 | 0.18 | 0.18 | 99 | 1007.0 |
| 20260507035332 | 57 | 225 | 3.5 | 5.2 | 0.00 | 0.16 | 0.16 | 99 | 1006.8 |
| 20260507034823 | 58 | 270 | 7.0 | 7.0 | 0.00 | 0.16 | 0.16 | 98 | 1006.8 |
| 20260507034352 | 58 | 180 | 8.7 | 10.4 | 0.01 | 0.16 | 0.16 | 98 | 1006.4 |
| 20260507033823 | 59 | 203 | 5.2 | 7.0 | 0.01 | 0.16 | 0.16 | 99 | 1006.4 |
| 20260507033327 | 59 | 158 | 2.6 | 3.5 | 0.01 | 0.16 | 0.16 | 99 | 1006.4 |
| 20260507032823 | 59 | 190 | 2.6 | 3.5 | 0.01 | 0.16 | 0.16 | 99 | 1006.4 |
| 20260507032340 | 59 | 43 | 3.5 | 5.2 | 0.01 | 0.16 | 0.16 | 99 | 1006.4 |
| 20260507031818 | 59 | 180 | 4.3 | 6.1 | 0.01 | 0.16 | 0.16 | 99 | 1006.0 |
| 20260507031413 | 59 | 203 | 5.2 | 7.0 | 0.01 | 0.16 | 0.16 | 99 | 1006.0 |
| 20260507030824 | 59 | 225 | 6.1 | 7.0 | 0.01 | 0.16 | 0.16 | 99 | 1005.7 |
| 20260507030332 | 59 | 204 | 1.7 | 1.7 | 0.01 | 0.16 | 0.16 | 99 | 1005.7 |
| 20260507025823 | 59 | 146 | 2.6 | 3.5 | 0.01 | 0.16 | 0.16 | 99 | 1005.7 |
| 20260507025332 | 59 | 158 | 1.7 | 2.6 | 0.01 | 0.16 | 0.16 | 99 | 1005.9 |
| 20260507024823 | 59 | 158 | 5.2 | 5.2 | 0.01 | 0.16 | 0.16 | 99 | 1005.9 |
| 20260507024333 | 59 | 125 | 4.3 | 6.1 | 0.00 | 0.15 | 0.15 | 99 | 1005.8 |
| 20260507023824 | 59 | 158 | 3.5 | 4.3 | 0.00 | 0.15 | 0.15 | 99 | 1005.8 |
| 20260507023335 | 59 | 113 | 1.7 | 2.6 | 0.00 | 0.15 | 0.15 | 99 | 1005.8 |
| 20260507022838 | 59 | 113 | 2.6 | 2.6 | 0.00 | 0.15 | 0.15 | 99 | 1005.8 |
| 20260507022328 | 59 | 90 | 1.7 | 2.6 | 0.00 | 0.15 | 0.15 | 99 | 1005.8 |
| 20260507021819 | 59 | 180 | 2.6 | 3.5 | 0.00 | 0.15 | 0.15 | 99 | 1005.6 |
| 20260507021323 | 59 | 90 | 1.7 | 1.7 | 0.00 | 0.15 | 0.15 | 99 | 1005.6 |
| 20260507020831 | 59 | 68 | 0.9 | 0.9 | 0.00 | 0.15 | 0.15 | 99 | 1005.7 |
| 20260507020341 | 59 | 70 | 2.6 | 2.6 | 0.00 | 0.15 | 0.15 | 99 | 1005.7 |
| 20260507015851 | 59 | 113 | 1.7 | 2.6 | 0.00 | 0.15 | 0.15 | 99 | 1005.7 |
| 20260507015322 | 59 | 113 | 1.7 | 1.7 | 0.00 | 0.15 | 0.15 | 99 | 1005.7 |
| 20260507014824 | 59 | 113 | 3.5 | 3.5 | 0.00 | 0.15 | 0.15 | 99 | 1005.7 |
| 20260507014318 | 59 | 113 | 0.9 | 1.7 | 0.00 | 0.15 | 0.15 | 99 | 1005.8 |
| 20260507013846 | 59 | 0.0 | 0.0 | 0.00 | 0.15 | 0.15 | 99 | 1005.8 | |
| 20260507013317 | 59 | 107 | 2.6 | 3.5 | 0.00 | 0.15 | 0.15 | 99 | 1005.7 |
| 20260507012827 | 59 | 125 | 2.6 | 3.5 | 0.00 | 0.15 | 0.15 | 99 | 1005.7 |
| 20260507012318 | 59 | 166 | 1.7 | 3.5 | 0.00 | 0.15 | 0.15 | 99 | 1005.7 |
| 20260507011827 | 59 | 84 | 2.6 | 3.5 | 0.00 | 0.15 | 0.15 | 99 | 1005.8 |
| 20260507011330 | 59 | 68 | 0.9 | 1.7 | 0.00 | 0.15 | 0.15 | 99 | 1005.8 |
| 20260507010822 | 59 | 45 | 3.5 | 4.3 | 0.00 | 0.15 | 0.15 | 99 | 1005.9 |
| 20260507010331 | 59 | 68 | 2.6 | 2.6 | 0.00 | 0.15 | 0.15 | 99 | 1005.9 |
| 20260507005822 | 59 | 113 | 2.6 | 2.6 | 0.00 | 0.15 | 0.15 | 99 | 1005.9 |
| 20260507005331 | 59 | 158 | 1.7 | 2.6 | 0.00 | 0.15 | 0.15 | 99 | 1005.8 |
| 20260507004822 | 59 | 88 | 3.5 | 3.5 | 0.00 | 0.15 | 0.15 | 99 | 1005.8 |
| 20260507004351 | 59 | 135 | 3.5 | 4.3 | 0.00 | 0.15 | 0.15 | 99 | 1005.7 |
| 20260507003822 | 59 | 32 | 4.3 | 5.2 | 0.00 | 0.15 | 0.15 | 99 | 1005.7 |
| 20260507003331 | 59 | 39 | 4.3 | 5.2 | 0.00 | 0.15 | 0.15 | 99 | 1005.7 |
| 20260507002817 | 59 | 37 | 4.3 | 6.1 | 0.00 | 0.15 | 0.15 | 99 | 1005.7 |
| 20260507002326 | 59 | 68 | 3.5 | 3.5 | 0.00 | 0.15 | 0.15 | 99 | 1005.7 |
| 20260507001817 | 59 | 45 | 2.6 | 2.6 | 0.00 | 0.15 | 0.15 | 99 | 1005.7 |
| 20260507001326 | 59 | 45 | 2.6 | 3.5 | 0.01 | 0.15 | 0.15 | 99 | 1005.7 |
| 20260507000815 | 59 | 225 | 3.5 | 4.3 | 0.01 | 0.15 | 0.15 | 99 | 1005.6 |
| 20260507000338 | 59 | 68 | 2.6 | 3.5 | 0.02 | 0.15 | 0.15 | 99 | 1005.6 |
| 20260506235816 | 59 | 56 | 2.6 | 3.5 | 0.03 | 0.15 | 0.15 | 99 | 1005.6 |
| 20260506235320 | 59 | 23 | 3.5 | 4.3 | 0.04 | 0.15 | 0.15 | 99 | 1005.5 |
| 20260506234826 | 59 | 338 | 3.5 | 3.5 | 0.04 | 0.15 | 0.15 | 99 | 1005.5 |
| 20260506234317 | 59 | 102 | 3.5 | 4.3 | 0.05 | 0.15 | 0.15 | 99 | 1005.5 |
| 20260506233826 | 59 | 113 | 3.5 | 4.3 | 0.05 | 0.15 | 0.15 | 99 | 1005.5 |
| 20260506233318 | 59 | 122 | 3.5 | 4.3 | 0.05 | 0.15 | 0.15 | 99 | 1005.5 |
| 20260506232820 | 59 | 68 | 3.5 | 3.5 | 0.06 | 0.15 | 0.15 | 99 | 1005.4 |
| 20260506232328 | 60 | 90 | 2.6 | 3.5 | 0.07 | 0.15 | 0.15 | 99 | 1005.4 |
| 20260506231819 | 60 | 52 | 3.5 | 5.2 | 0.07 | 0.15 | 0.15 | 99 | 1005.5 |
| 20260506231326 | 60 | 45 | 2.6 | 3.5 | 0.06 | 0.14 | 0.14 | 99 | 1005.5 |
| 20260506230830 | 60 | 68 | 3.5 | 4.3 | 0.06 | 0.14 | 0.14 | 99 | 1005.6 |
| 20260506230321 | 60 | 45 | 4.3 | 7.0 | 0.05 | 0.13 | 0.13 | 99 | 1005.6 |
| 20260506225830 | 60 | 113 | 3.5 | 5.2 | 0.04 | 0.12 | 0.12 | 99 | 1005.6 |
| 20260506225322 | 0 | 82 | 2.6 | 2.6 | 0.03 | 0.11 | 0.11 | 1005.7 | |
| 20260506224831 | 60 | 118 | 2.6 | 3.5 | 0.03 | 0.11 | 0.11 | 99 | 1005.7 |
| 20260506224322 | 60 | 101 | 2.6 | 2.6 | 0.02 | 0.10 | 0.10 | 99 | 1005.6 |
| 20260506223823 | 60 | 23 | 5.2 | 7.0 | 0.02 | 0.10 | 0.10 | 99 | 1005.6 |
| 20260506223320 | 60 | 98 | 3.5 | 4.3 | 0.02 | 0.10 | 0.10 | 99 | 1005.7 |
| 20260506222817 | 60 | 68 | 2.6 | 3.5 | 0.01 | 0.09 | 0.09 | 99 | 1005.7 |
| 20260506222341 | 60 | 68 | 4.3 | 5.2 | 0.00 | 0.08 | 0.08 | 99 | 1005.7 |
| 20260506221830 | 60 | 90 | 3.5 | 4.3 | 0.00 | 0.08 | 0.08 | 99 | 1005.8 |
| 20260506221321 | 60 | 45 | 4.3 | 4.3 | 0.00 | 0.08 | 0.08 | 99 | 1005.8 |
| 20260506220843 | 60 | 68 | 2.6 | 3.5 | 0.00 | 0.08 | 0.08 | 99 | 1005.9 |
| 20260506220352 | 60 | 31 | 3.5 | 4.3 | 0.00 | 0.08 | 0.08 | 99 | 1005.9 |
| 20260506215823 | 60 | 56 | 3.5 | 4.3 | 0.00 | 0.08 | 0.08 | 99 | 1005.9 |
| 20260506215333 | 60 | 81 | 3.5 | 4.3 | 0.01 | 0.08 | 0.08 | 99 | 1006.0 |
| 20260506214824 | 60 | 58 | 5.2 | 6.1 | 0.01 | 0.08 | 0.08 | 99 | 1006.0 |
| 20260506214333 | 60 | 4.3 | 4.3 | 0.01 | 0.08 | 0.08 | 99 | 1006.0 | |
| 20260506213838 | 60 | 68 | 5.2 | 6.1 | 0.01 | 0.08 | 0.08 | 99 | 1006.0 |
| 20260506213327 | 60 | 68 | 3.5 | 5.2 | 0.02 | 0.08 | 0.08 | 99 | 1006.0 |
| 20260506212817 | 60 | 71 | 3.5 | 3.5 | 0.02 | 0.08 | 0.08 | 99 | 1006.1 |
| 20260506212325 | 60 | 68 | 6.1 | 7.0 | 0.02 | 0.08 | 0.08 | 99 | 1006.1 |
| 20260506211817 | 60 | 70 | 4.3 | 5.2 | 0.02 | 0.08 | 0.08 | 99 | 1006.3 |
| 20260506211326 | 60 | 92 | 3.5 | 5.2 | 0.03 | 0.08 | 0.08 | 99 | 1006.3 |
| 20260506210817 | 60 | 75 | 4.3 | 5.2 | 0.03 | 0.08 | 0.08 | 99 | 1006.4 |
| 20260506210326 | 60 | 77 | 4.3 | 5.2 | 0.03 | 0.08 | 0.08 | 99 | 1006.4 |
| 20260506205817 | 60 | 76 | 5.2 | 6.1 | 0.04 | 0.08 | 0.08 | 99 | 1006.4 |
| 20260506205321 | 61 | 68 | 3.5 | 4.3 | 0.03 | 0.07 | 0.07 | 99 | 1006.5 |
| 20260506204817 | 61 | 45 | 2.6 | 3.5 | 0.03 | 0.07 | 0.07 | 99 | 1006.5 |
| 20260506204320 | 61 | 4.3 | 4.3 | 0.03 | 0.07 | 0.07 | 99 | 1006.6 | |
| 20260506203829 | 61 | 113 | 5.2 | 5.2 | 0.03 | 0.07 | 0.07 | 99 | 1006.6 |
| 20260506203340 | 61 | 194 | 4.3 | 5.2 | 0.02 | 0.06 | 0.06 | 99 | 1006.5 |
| 20260506202828 | 61 | 113 | 7.8 | 9.6 | 0.02 | 0.06 | 0.06 | 99 | 1006.5 |
| 20260506202320 | 61 | 82 | 7.0 | 8.7 | 0.03 | 0.06 | 0.06 | 99 | 1006.5 |
| 20260506201823 | 61 | 124 | 5.2 | 5.2 | 0.03 | 0.06 | 0.06 | 99 | 1006.2 |
| 20260506201328 | 62 | 55 | 3.5 | 4.3 | 0.03 | 0.05 | 0.05 | 99 | 1006.2 |
| 20260506200818 | 62 | 68 | 3.5 | 4.3 | 0.03 | 0.05 | 0.05 | 99 | 1006.4 |
| 20260506200327 | 62 | 90 | 6.1 | 7.0 | 0.03 | 0.05 | 0.05 | 99 | 1006.4 |
| 20260506195838 | 62 | 68 | 4.3 | 6.1 | 0.03 | 0.04 | 0.04 | 99 | 1006.4 |
| 20260506195325 | 63 | 45 | 5.2 | 5.2 | 0.03 | 0.04 | 0.04 | 99 | 1006.5 |
| 20260506194816 | 63 | 68 | 4.3 | 6.1 | 0.04 | 0.04 | 0.04 | 99 | 1006.5 |
| 20260506194325 | 63 | 4.3 | 5.2 | 0.04 | 0.04 | 0.04 | 99 | 1006.4 | |
| 20260506193849 | 63 | 90 | 2.6 | 2.6 | 0.04 | 0.04 | 0.04 | 99 | 1006.4 |
| 20260506193319 | 64 | 71 | 2.6 | 3.5 | 0.04 | 0.04 | 0.04 | 99 | 1006.4 |
| 20260506192827 | 64 | 60 | 3.5 | 4.3 | 0.04 | 0.04 | 0.04 | 99 | 1006.4 |
| 20260506192319 | 64 | 90 | 1.7 | 2.6 | 0.03 | 0.03 | 0.03 | 98 | 1006.4 |
| 20260506191842 | 64 | 90 | 2.6 | 2.6 | 0.03 | 0.03 | 0.03 | 98 | 1006.3 |
| 20260506191319 | 64 | 113 | 6.1 | 6.1 | 0.02 | 0.02 | 0.02 | 98 | 1006.3 |
| 20260506190856 | 65 | 65 | 3.5 | 4.3 | 0.02 | 0.02 | 0.02 | 96 | 1006.4 |
| 20260506190319 | 65 | 58 | 2.6 | 3.5 | 0.02 | 0.02 | 0.02 | 94 | 1006.4 |
| 20260506185828 | 66 | 113 | 4.3 | 5.2 | 0.01 | 0.01 | 0.01 | 91 | 1006.4 |
| 20260506185339 | 66 | 207 | 3.5 | 4.3 | 0.01 | 0.01 | 0.01 | 88 | 1006.6 |
| 20260506184847 | 67 | 49 | 8.7 | 10.4 | 0.00 | 0.00 | 0.00 | 85 | 1006.6 |
| 20260506184319 | 68 | 119 | 4.3 | 4.3 | 0.00 | 0.00 | 0.00 | 83 | 1006.5 |
| 20260506183828 | 68 | 60 | 5.2 | 6.1 | 0.00 | 0.00 | 0.00 | 82 | 1006.5 |
| 20260506183318 | 69 | 113 | 6.1 | 10.4 | 0.00 | 0.00 | 0.00 | 81 | 1006.5 |
| 20260506182829 | 69 | 45 | 4.3 | 5.2 | 0.00 | 0.00 | 0.00 | 80 | 1006.6 |
| 20260506182319 | 70 | 180 | 4.3 | 4.3 | 0.00 | 0.00 | 0.00 | 78 | 1006.6 |
| 20260506181828 | 70 | 113 | 4.3 | 5.2 | 0.00 | 0.00 | 0.00 | 75 | 1006.4 |
| 20260506181318 | 71 | 89 | 5.2 | 6.1 | 0.00 | 0.00 | 0.00 | 73 | 1006.4 |
| 20260506180822 | 72 | 180 | 7.0 | 7.8 | 0.00 | 0.00 | 0.00 | 69 | 1006.6 |
| 20260506180422 | 72 | 68 | 2.6 | 3.5 | 0.00 | 0.00 | 0.00 | 68 | 1006.6 |
| 20260506175830 | 72 | 68 | 7.0 | 8.7 | 0.00 | 0.01 | 0.00 | 68 | 1006.6 |
| 20260506175341 | 73 | 0 | 5.2 | 6.1 | 0.00 | 0.01 | 0.00 | 67 | 1006.5 |
| 20260506174824 | 73 | 180 | 5.2 | 6.1 | 0.00 | 0.01 | 0.00 | 66 | 1006.5 |
| 20260506174321 | 73 | 103 | 6.1 | 6.1 | 0.00 | 0.01 | 0.00 | 65 | 1006.7 |
| 20260506173817 | 74 | 158 | 6.1 | 7.0 | 0.00 | 0.01 | 0.00 | 65 | 1006.7 |
| 20260506173412 | 74 | 85 | 8.7 | 9.6 | 0.00 | 0.01 | 0.00 | 64 | 1006.6 |
| 20260506172904 | 74 | 68 | 4.3 | 4.3 | 0.00 | 0.01 | 0.00 | 64 | 1006.6 |
| 20260506172333 | 74 | 144 | 3.5 | 5.2 | 0.00 | 0.01 | 0.00 | 64 | 1006.6 |
| 20260506171818 | 74 | 203 | 2.6 | 3.5 | 0.00 | 0.01 | 0.00 | 64 | 1006.7 |
| 20260506171325 | 74 | 135 | 4.3 | 5.2 | 0.00 | 0.01 | 0.00 | 65 | 1006.7 |
| 20260506170815 | 75 | 69 | 5.2 | 7.8 | 0.00 | 0.01 | 0.00 | 65 | 1006.7 |
| 20260506170324 | 75 | 45 | 7.0 | 8.7 | 0.00 | 0.01 | 0.00 | 65 | 1006.7 |
| 20260506165822 | 75 | 90 | 5.2 | 7.0 | 0.00 | 0.01 | 0.00 | 66 | 1006.7 |
| 20260506165351 | 74 | 68 | 4.3 | 5.2 | 0.00 | 0.01 | 0.00 | 68 | 1007.0 |
| 20260506164822 | 73 | 80 | 4.3 | 5.2 | 0.00 | 0.01 | 0.00 | 68 | 1007.0 |
| 20260506164331 | 73 | 74 | 5.2 | 6.1 | 0.00 | 0.01 | 0.00 | 68 | 1007.2 |
| 20260506163822 | 73 | 5.2 | 7.0 | 0.00 | 0.01 | 0.00 | 68 | 1007.2 | |
| 20260506163331 | 73 | 69 | 5.2 | 7.0 | 0.00 | 0.01 | 0.00 | 68 | 1007.2 |
| 20260506162824 | 73 | 68 | 4.3 | 6.1 | 0.00 | 0.01 | 0.00 | 69 | 1007.3 |
| 20260506162332 | 73 | 126 | 5.2 | 6.1 | 0.00 | 0.01 | 0.00 | 69 | 1007.3 |
| 20260506161843 | 73 | 45 | 4.3 | 5.2 | 0.00 | 0.01 | 0.00 | 69 | 1007.6 |
| 20260506161326 | 73 | 80 | 6.1 | 7.0 | 0.00 | 0.01 | 0.00 | 69 | 1007.6 |
| 20260506160823 | 73 | 45 | 6.1 | 8.7 | 0.00 | 0.01 | 0.00 | 69 | 1007.9 |
| 20260506160320 | 73 | 68 | 8.7 | 11.3 | 0.00 | 0.01 | 0.00 | 69 | 1007.9 |
| 20260506155837 | 73 | 77 | 3.5 | 4.3 | 0.00 | 0.01 | 0.00 | 69 | 1007.9 |
| 20260506155325 | 72 | 135 | 3.5 | 3.5 | 0.00 | 0.01 | 0.00 | 69 | 1008.0 |
| 20260506154816 | 72 | 99 | 7.8 | 10.4 | 0.00 | 0.01 | 0.00 | 69 | 1008.0 |
| 20260506154325 | 72 | 33 | 4.3 | 5.2 | 0.00 | 0.01 | 0.00 | 70 | 1008.2 |
| 20260506153817 | 72 | 113 | 1.7 | 1.7 | 0.00 | 0.01 | 0.00 | 71 | 1008.2 |
| 20260506153325 | 72 | 110 | 5.2 | 5.2 | 0.00 | 0.01 | 0.00 | 71 | |
| 20260506152816 | 72 | 45 | 2.6 | 2.6 | 0.00 | 0.01 | 0.00 | 71 | 1008.3 |
| 20260506152345 | 72 | 44 | 6.1 | 7.8 | 0.00 | 0.01 | 0.00 | 71 | 1008.3 |
| 20260506151815 | 72 | 354 | 5.2 | 6.1 | 0.00 | 0.01 | 0.00 | 71 | 1008.6 |
| 20260506151324 | 72 | 79 | 5.2 | 6.1 | 0.00 | 0.01 | 0.00 | 71 | 1008.6 |
| 20260506150815 | 72 | 337 | 3.5 | 4.3 | 0.00 | 0.01 | 0.00 | 72 | 1008.5 |
| 20260506150344 | 72 | 45 | 5.2 | 6.1 | 0.00 | 0.01 | 0.00 | 72 | 1008.5 |
| 20260506145815 | 73 | 61 | 6.1 | 7.8 | 0.00 | 0.01 | 0.00 | 71 | 1008.5 |
| 20260506145337 | 72 | 97 | 5.2 | 7.8 | 0.00 | 0.01 | 0.00 | 71 | 1008.7 |
| 20260506144815 | 71 | 64 | 4.3 | 6.1 | 0.00 | 0.01 | 0.00 | 73 | 1008.7 |
| 20260506144324 | 71 | 93 | 5.2 | 6.1 | 0.00 | 0.01 | 0.00 | 73 | 1008.6 |
| 20260506143815 | 71 | 78 | 6.1 | 7.8 | 0.00 | 0.01 | 0.00 | 73 | 1008.6 |
| 20260506143323 | 71 | 23 | 8.7 | 9.6 | 0.00 | 0.01 | 0.00 | 73 | 1008.5 |
| 20260506142830 | 72 | 45 | 6.1 | 7.0 | 0.00 | 0.01 | 0.00 | 72 | 1008.5 |
| 20260506142321 | 72 | 23 | 5.2 | 7.0 | 0.00 | 0.01 | 0.00 | 72 | 1008.5 |
| 20260506141830 | 72 | 113 | 6.1 | 8.7 | 0.00 | 0.01 | 0.00 | 72 | 1008.3 |
| 20260506141321 | 73 | 70 | 5.2 | 6.1 | 0.00 | 0.01 | 0.00 | 72 | 1008.3 |
| 20260506140830 | 72 | 90 | 3.5 | 4.3 | 0.00 | 0.01 | 0.00 | 73 | 1008.5 |
| 20260506140321 | 72 | 68 | 6.1 | 7.8 | 0.00 | 0.01 | 0.00 | 73 | 1008.5 |
| 20260506135830 | 72 | 116 | 3.5 | 5.2 | 0.00 | 0.01 | 0.00 | 74 | 1008.5 |
| 20260506135321 | 70 | 90 | 3.5 | 4.3 | 0.00 | 0.01 | 0.00 | 76 | 1008.7 |
| 20260506134831 | 69 | 38 | 4.3 | 4.3 | 0.00 | 0.01 | 0.00 | 77 | 1008.7 |
| 20260506134341 | 70 | 45 | 4.3 | 6.1 | 0.00 | 0.01 | 0.00 | 77 | 1009.0 |
| 20260506133830 | 69 | 68 | 3.5 | 4.3 | 0.00 | 0.01 | 0.00 | 78 | 1009.0 |
| 20260506133321 | 69 | 23 | 7.0 | 7.0 | 0.00 | 0.01 | 0.00 | 79 | 1009.0 |
| 20260506132824 | 69 | 45 | 6.1 | 7.8 | 0.00 | 0.01 | 0.00 | 79 | 1009.2 |
| 20260506132321 | 68 | 64 | 5.2 | 6.1 | 0.00 | 0.01 | 0.00 | 80 | 1009.2 |
| 20260506131839 | 68 | 28 | 4.3 | 5.2 | 0.00 | 0.01 | 0.00 | 81 | 1009.3 |
| 20260506131407 | 67 | 12 | 6.1 | 7.0 | 0.00 | 0.01 | 0.00 | 82 | 1009.3 |
| 20260506130836 | 67 | 100 | 5.2 | 5.2 | 0.00 | 0.01 | 0.00 | 82 | 1009.1 |
| 20260506130325 | 67 | 104 | 4.3 | 6.1 | 0.00 | 0.01 | 0.00 | 82 | 1009.1 |
| 20260506125837 | 66 | 88 | 5.2 | 7.0 | 0.00 | 0.01 | 0.00 | 82 | 1009.1 |
| 20260506125326 | 66 | 113 | 4.3 | 5.2 | 0.00 | 0.01 | 0.00 | 83 | 1009.3 |
| 20260506124817 | 66 | 55 | 4.3 | 5.2 | 0.00 | 0.01 | 0.00 | 84 | 1009.3 |
| 20260506124346 | 66 | 90 | 3.5 | 3.5 | 0.00 | 0.01 | 0.00 | 84 | 1009.1 |
| 20260506123816 | 66 | 79 | 5.2 | 6.1 | 0.00 | 0.01 | 0.00 | 84 | 1009.1 |
| 20260506123325 | 65 | 65 | 5.2 | 6.1 | 0.00 | 0.01 | 0.00 | 85 | 1009.1 |
| 20260506122816 | 65 | 45 | 5.2 | 6.1 | 0.00 | 0.01 | 0.00 | 85 | 1009.4 |
| 20260506122325 | 65 | 90 | 4.3 | 5.2 | 0.00 | 0.01 | 0.00 | 85 | 1009.4 |
| 20260506121837 | 64 | 45 | 4.3 | 5.2 | 0.00 | 0.01 | 0.00 | 85 | 1009.4 |
| 20260506121346 | 65 | 113 | 6.1 | 7.8 | 0.00 | 0.01 | 0.00 | 84 | 1009.4 |
| 20260506120830 | 65 | 23 | 4.3 | 4.3 | 0.00 | 0.01 | 0.00 | 84 | 1009.3 |
| 20260506120320 | 66 | 45 | 5.2 | 6.1 | 0.00 | 0.01 | 0.00 | 84 | 1009.3 |
| 20260506115829 | 65 | 113 | 3.5 | 4.3 | 0.00 | 0.01 | 0.00 | 85 | 1009.3 |
| 20260506115320 | 63 | 2.6 | 2.6 | 0.00 | 0.01 | 0.00 | 88 | 1009.5 | |
| 20260506114823 | 63 | 2.6 | 4.3 | 0.00 | 0.01 | 0.00 | 88 | 1009.5 | |
| 20260506114319 | 63 | 80 | 4.3 | 5.2 | 0.00 | 0.01 | 0.00 | 88 | 1009.5 |
| 20260506113826 | 63 | 113 | 4.3 | 6.1 | 0.00 | 0.01 | 0.00 | 88 | 1009.5 |
| 20260506113337 | 63 | 113 | 3.5 | 5.2 | 0.00 | 0.01 | 0.00 | 88 | 1009.5 |
| 20260506112825 | 63 | 146 | 4.3 | 6.1 | 0.00 | 0.01 | 0.00 | 88 | 1009.8 |
| 20260506112317 | 63 | 34 | 4.3 | 5.2 | 0.00 | 0.01 | 0.00 | 88 | 1009.8 |
| 20260506111820 | 62 | 54 | 3.5 | 3.5 | 0.00 | 0.01 | 0.00 | 88 | 1009.6 |
| 20260506111329 | 63 | 100 | 3.5 | 3.5 | 0.00 | 0.01 | 0.00 | 88 | 1009.6 |
| 20260506110820 | 63 | 68 | 4.3 | 7.8 | 0.00 | 0.01 | 0.00 | 88 | 1009.6 |
| 20260506110329 | 63 | 56 | 4.3 | 7.8 | 0.00 | 0.01 | 0.00 | 88 | 1009.6 |
| 20260506105820 | 62 | 45 | 7.0 | 8.7 | 0.00 | 0.01 | 0.00 | 89 | 1009.6 |
| 20260506105329 | 62 | 68 | 6.1 | 6.1 | 0.00 | 0.01 | 0.00 | 90 | 1009.7 |
| 20260506104820 | 62 | 23 | 4.3 | 4.3 | 0.00 | 0.01 | 0.00 | 90 | 1009.7 |
| 20260506104329 | 61 | 82 | 4.3 | 5.2 | 0.00 | 0.01 | 0.00 | 91 | 1009.7 |
| 20260506103821 | 61 | 68 | 2.6 | 3.5 | 0.00 | 0.01 | 0.00 | 91 | 1009.7 |
| 20260506103325 | 60 | 68 | 2.6 | 3.5 | 0.00 | 0.01 | 0.00 | 91 | 1009.7 |
| 20260506102826 | 60 | 203 | 2.6 | 2.6 | 0.00 | 0.01 | 0.00 | 91 | 1009.6 |
| 20260506102315 | 60 | 89 | 4.3 | 5.2 | 0.00 | 0.01 | 0.00 | 91 | 1009.6 |
| 20260506101825 | 60 | 146 | 4.3 | 4.3 | 0.00 | 0.01 | 0.00 | 91 | 1009.7 |
| 20260506101336 | 60 | 63 | 4.3 | 4.3 | 0.00 | 0.01 | 0.00 | 91 | 1009.7 |
| 20260506100819 | 60 | 73 | 3.5 | 4.3 | 0.00 | 0.01 | 0.00 | 91 | 1009.6 |
| 20260506100316 | 60 | 113 | 2.6 | 3.5 | 0.00 | 0.01 | 0.00 | 91 | 1009.6 |
| 20260506095825 | 60 | 45 | 3.5 | 4.3 | 0.00 | 0.01 | 0.00 | 91 | 1009.6 |
| 20260506095332 | 60 | 67 | 1.7 | 2.6 | 0.00 | 0.01 | 0.00 | 91 | 1009.6 |
| 20260506094823 | 60 | 113 | 3.5 | 4.3 | 0.00 | 0.01 | 0.00 | 91 | 1009.6 |
| 20260506094332 | 60 | 45 | 3.5 | 5.2 | 0.00 | 0.01 | 0.00 | 91 | 1009.4 |
| 20260506093824 | 60 | 51 | 3.5 | 3.5 | 0.00 | 0.01 | 0.00 | 91 | 1009.4 |
| 20260506093332 | 60 | 40 | 2.6 | 2.6 | 0.00 | 0.01 | 0.00 | 90 | 1009.4 |
| 20260506092843 | 60 | 45 | 2.6 | 3.5 | 0.00 | 0.01 | 0.00 | 90 | 1009.6 |
| 20260506092332 | 60 | 68 | 2.6 | 2.6 | 0.00 | 0.01 | 0.00 | 90 | 1009.6 |
| 20260506091837 | 60 | 225 | 4.3 | 6.1 | 0.00 | 0.01 | 0.00 | 90 | 1009.6 |
| 20260506091326 | 60 | 68 | 3.5 | 3.5 | 0.00 | 0.01 | 0.00 | 89 | 1009.6 |
| 20260506090816 | 60 | 115 | 3.5 | 5.2 | 0.00 | 0.01 | 0.00 | 89 | 1009.6 |
| 20260506090321 | 60 | 93 | 3.5 | 4.3 | 0.00 | 0.01 | 0.00 | 89 | 1009.6 |
| 20260506085825 | 60 | 59 | 3.5 | 4.3 | 0.00 | 0.01 | 0.00 | 89 | 1009.6 |
| 20260506085336 | 61 | 80 | 2.6 | 4.3 | 0.00 | 0.01 | 0.00 | 89 | 1009.7 |
| 20260506084818 | 61 | 100 | 1.7 | 2.6 | 0.00 | 0.01 | 0.00 | 88 | 1009.7 |
| 20260506084320 | 61 | 113 | 1.7 | 2.6 | 0.00 | 0.01 | 0.00 | 88 | 1009.7 |
| 20260506083821 | 61 | 293 | 1.7 | 2.6 | 0.00 | 0.01 | 0.00 | 88 | 1009.7 |
| 20260506083319 | 61 | 23 | 3.5 | 4.3 | 0.00 | 0.01 | 0.00 | 88 | 1009.7 |
| 20260506082833 | 61 | 34 | 3.5 | 3.5 | 0.00 | 0.01 | 0.00 | 87 | 1009.7 |
| 20260506082323 | 61 | 180 | 1.7 | 2.6 | 0.00 | 0.01 | 0.00 | 87 | 1009.7 |
| 20260506081853 | 61 | 45 | 5.2 | 7.0 | 0.00 | 0.01 | 0.00 | 87 | 1009.6 |